VGEGVYMD

Guest
Details From VGEG - Shah Amanat Intl
To VYMD - Mandalay Intl
Flight Number -
Tags Generated
Created
Modified
Stats Distance 235 nm / 435 km
Max Altitude 0 ft / 0 m
Waypoints 3
Social Downloads 0
Likes 0
Share VATSIM

Download

Looking for another format? Having issues loading an existing format? Contact us
Advertisement - Login to hide

Notes

Generated

Route

VGEG MIA VYMD

ID Type Via Altitude Latitude Longitude Leg Dist Tot Dist Heading (true) Name
O VGEG APT - 0 ft / 0 m 22.24081˚ 91.80265˚ - 0 nm - -
MIA VOR - 0 ft / 0 m 21.71094˚ 95.97475˚ 234 nm 234 nm 97° / 99° MANDALAY VOR-DME
O VYMD APT - 0 ft / 0 m 21.72002˚ 95.97441˚ 0 nm 235 nm 358° / 358° -

Altitude Profile

Advertisement - Login to hide

Weather


0- 5 10 15 20 25 30 35+ Temperature / ° C

Clouds and Precipitation
Forecast for 2018-05-25 12:00 UTC. Updated 28 minutes ago

Ground ~20,000 ft ~40,000 ft Winds

VGEG

Details ICAO VGEG (CGP)
Name SHAH AMANAT INTL
Region Bangladesh
Timezone Asia/Dhaka (UTC+6.0)
Stats Elevation 12 ft / 4 m (AMSL)
Location 22.249610° 91.813286°
Runways 1
Magnetic Variation 0.379° W

METAR

VGEG 250900Z 20008KT 6000 SCT018 BKN100 33/27 Q1004 NOSIG

Decode

TAF

TAF TAF VGEG 242300Z 2500/2606 12006KT 4500 SCT017 BECMG 2506/2508 20012KT 5000 SCT018 BECMG 2514/2516 18008KT 5000 SCT018 BECMG 2520/2522 00000KT 4500 HZ SCT017 BECMG 2603/2605 20010KT 5000 SCT018

Decode

Departure Runways

ID Width Length Bearing (true) Bearing (mag) Surface Threshold Offset Overrun Length
05 150 ft / 46 m 9,633 ft / 2,936 m 48.21° 48.59° Asphalt 0 ft / 0 m 200 ft / 61 m
23 150 ft / 46 m 9,633 ft / 2,936 m 228.21° 228.59° Asphalt 0 ft / 0 m 1,194 ft / 364 m

VYMD

Details ICAO VYMD (MDL)
Name MANDALAY INTL
Region Myanmar
Timezone Asia/Rangoon (UTC+6.5)
Stats Elevation 300 ft / 91 m (AMSL)
Location 21.701010° 95.977795°
Runways 1
Magnetic Variation 0.611° W

METAR

VYMD 250930Z 19007G15KT 7000 SCT020 FEW025CB FEW120 39/23 Q1001

Decode

TAF

TAF VYMD 250500Z 2506/2606 19010KT 7000 SCT020 FEW025CB TEMPO 2506/ 2512 18010G20KT 7000 SCT020 FEW025CB

Decode

Destination Runways

ID Width Length Bearing (true) Bearing (mag) Surface Threshold Offset Overrun Length
17 200 ft / 61 m 14,062 ft / 4,286 m 170.60° 171.21° Concrete 0 ft / 0 m 200 ft / 61 m
35 200 ft / 61 m 14,062 ft / 4,286 m 350.60° 351.21° Concrete 0 ft / 0 m 200 ft / 61 m

Approach Navaids

Runway Type Ident Frequency Range Bearing (true) Bearing (mag) Slope Elevation
17 Localiser IMIA 110.50 MHz 18 nm / 33 km 170.62° 171.23° - 300 ft / 91 m (AMSL)
17 Glidescope IMIA 110.50 MHz 10 nm / 19 km 170.60° 171.21° 3.00° 286 ft / 87 m (AMSL)
17 DME IMIA 110.50 MHz 18 nm / 33 km - - - 300 ft / 91 m (AMSL)

Popular Alternatives